Voltar ao catálogo

SL-12 R/B

AUX MOTOR

AtivoHEO
NORAD 21012·ROCKET BODY·🇷🇺 Russia

Lançado Dec 8, 1990 de Baikonur Cosmodrome

Loading…

Próximas Passagens (próximas 24 horas)

TLE

AtualizadoSource: Space-Track

Época: Sep 13, 2026, 11:03 UTC

1 21012U 90110G   26256.46058661  .00001428  00000-0  60618-3 0  9993
2 21012  65.1456  33.8211 5704768   3.5790 359.1261  4.44737968209363

Acompanhe SL-12 R/B em tempo real com AllMySat

Download on the App Store